,,PressureMeas_1m,,PRMeasQMR101_1,,RHStat155_1m_1,,SRMeasQMS101R_1m,,TAStat155_1m_1,,GenWind_1,,GenWind_1,
2018-06-21, 00:00:06,VALID,919.331,VALID,0.0,VALID,96.939,VALID,-0.015,VALID,21.131,VALID,266.0,VALID,0.0,
2018-06-21, 00:01:06,VALID,919.33,VALID,0.0,VALID,96.641,VALID,-0.032,VALID,21.138,VALID,266.0,VALID,0.0,
2018-06-21, 00:02:06,VALID,919.314,VALID,0.0,VALID,96.311,VALID,0.001,VALID,21.178,VALID,266.0,VALID,0.0,
2018-06-21, 00:03:06,VALID,919.295,VALID,0.0,VALID,96.258,VALID,-0.007,VALID,21.231,VALID,266.0,VALID,0.0,
2018-06-21, 00:04:06,VALID,919.291,VALID,0.0,VALID,96.609,VALID,-0.011,VALID,21.281,VALID,266.0,VALID,0.0,
2018-06-21, 00:05:06,VALID,919.28,VALID,0.0,VALID,96.295,VALID,-0.013,VALID,21.245,VALID,266.0,VALID,0.0,
2018-06-21, 00:06:06,VALID,919.276,VALID,0.0,VALID,96.106,VALID,-0.012,VALID,21.212,VALID,266.0,VALID,0.0,
2018-06-21, 00:07:06,VALID,919.258,VALID,0.0,VALID,96.437,VALID,0.004,VALID,21.207,VALID,266.0,VALID,0.0,
2018-06-21, 00:08:06,VALID,919.257,VALID,0.0,VALID,96.001,VALID,0.011,VALID,21.155,VALID,266.0,VALID,0.0,
2018-06-21, 00:09:06,VALID,919.233,VALID,0.0,VALID,95.651,VALID,0.007,VALID,21.128,VALID,266.0,VALID,0.0,
2018-06-21, 00:10:06,VALID,919.214,VALID,0.0,VALID,95.758,VALID,0.008,VALID,21.14,VALID,266.0,VALID,0.0,
2018-06-21, 00:11:06,VALID,919.185,VALID,0.0,VALID,96.045,VALID,0.016,VALID,21.182,VALID,266.0,VALID,0.0,
2018-06-21, 00:12:06,VALID,919.166,VALID,0.0,VALID,95.999,VALID,-0.007,VALID,21.193,VALID,266.0,VALID,0.0,
2018-06-21, 00:13:06,VALID,919.15,VALID,0.0,VALID,95.623,VALID,0.001,VALID,21.173,VALID,266.0,VALID,0.0,
2018-06-21, 00:14:06,VALID,919.135,VALID,0.0,VALID,95.475,VALID,0.0,VALID,21.172,VALID,266.0,VALID,0.0,
2018-06-21, 00:15:06,VALID,919.118,VALID,0.0,VALID,95.395,VALID,-0.0,VALID,21.191,VALID,264.0,VALID,0.0,
2018-06-21, 00:16:06,VALID,919.103,VALID,0.0,VALID,95.352,VALID,0.002,VALID,21.201,VALID,264.0,VALID,0.0,
2018-06-21, 00:17:06,VALID,919.091,VALID,0.0,VALID,95.121,VALID,-0.004,VALID,21.19,VALID,264.0,VALID,0.0,
2018-06-21, 00:18:06,VALID,919.073,VALID,0.0,VALID,95.591,VALID,-0.004,VALID,21.229,VALID,264.0,VALID,0.0,
2018-06-21, 00:19:06,VALID,919.071,VALID,0.0,VALID,95.902,VALID,0.002,VALID,21.217,VALID,312.0,VALID,0.0,
2018-06-21, 00:20:06,VALID,919.066,VALID,0.0,VALID,95.876,VALID,0.001,VALID,21.137,VALID,40.0,VALID,0.319,
2018-06-21, 00:21:06,VALID,919.055,VALID,0.0,VALID,95.96,VALID,-0.007,VALID,21.039,VALID,51.0,VALID,0.523,
2018-06-21, 00:22:06,VALID,919.052,VALID,0.0,VALID,96.13,VALID,-0.011,VALID,20.966,VALID,63.0,VALID,0.751,
2018-06-21, 00:23:06,VALID,919.037,VALID,0.0,VALID,96.272,VALID,-0.012,VALID,20.917,VALID,70.0,VALID,0.816,
2018-06-21, 00:24:06,VALID,919.029,VALID,0.0,VALID,96.364,VALID,-0.004,VALID,20.867,VALID,76.0,VALID,0.707,
2018-06-21, 00:25:06,VALID,919.012,VALID,0.0,VALID,96.543,VALID,-0.004,VALID,20.83,VALID,80.0,VALID,0.779,
2018-06-21, 00:26:06,VALID,919.01,VALID,0.0,VALID,96.616,VALID,-0.022,VALID,20.815,VALID,78.0,VALID,1.167,
2018-06-21, 00:27:06,VALID,919.006,VALID,0.0,VALID,96.62,VALID,-0.013,VALID,20.82,VALID,102.0,VALID,1.286,
2018-06-21, 00:28:06,VALID,919.004,VALID,0.0,VALID,96.7,VALID,0.001,VALID,20.84,VALID,112.0,VALID,1.446,
2018-06-21, 00:29:06,VALID,919.005,VALID,0.0,VALID,96.771,VALID,-0.006,VALID,20.843,VALID,112.0,VALID,1.528,
2018-06-21, 00:30:06,VALID,919.004,VALID,0.0,VALID,96.738,VALID,-0.018,VALID,20.844,VALID,121.0,VALID,1.756,
2018-06-21, 00:31:06,VALID,919.01,VALID,0.0,VALID,96.948,VALID,-0.01,VALID,20.844,VALID,125.0,VALID,1.728,
2018-06-21, 00:32:06,VALID,919.005,VALID,0.0,VALID,97.194,VALID,-0.008,VALID,20.815,VALID,125.0,VALID,1.527,
2018-06-21, 00:33:06,VALID,919.003,VALID,0.0,VALID,97.384,VALID,-0.021,VALID,20.8,VALID,129.0,VALID,1.609,
2018-06-21, 00:34:06,VALID,918.997,VALID,0.0,VALID,97.506,VALID,-0.007,VALID,20.786,VALID,128.0,VALID,1.649,
2018-06-21, 00:35:06,VALID,918.99,VALID,0.0,VALID,97.609,VALID,-0.0,VALID,20.788,VALID,131.0,VALID,1.42,
2018-06-21, 00:36:06,VALID,918.987,VALID,0.0,VALID,97.62,VALID,0.004,VALID,20.782,VALID,120.0,VALID,1.65,
2018-06-21, 00:37:06,VALID,918.968,VALID,0.0,VALID,97.621,VALID,-0.005,VALID,20.76,VALID,118.0,VALID,1.501,
2018-06-21, 00:38:06,VALID,918.952,VALID,0.0,VALID,97.691,VALID,0.008,VALID,20.74,VALID,116.0,VALID,1.5,
2018-06-21, 00:39:06,VALID,918.941,VALID,0.0,VALID,97.707,VALID,0.008,VALID,20.722,VALID,116.0,VALID,1.126,
2018-06-21, 00:40:06,VALID,918.921,VALID,0.0,VALID,97.759,VALID,0.01,VALID,20.704,VALID,112.0,VALID,0.709,
2018-06-21, 00:41:06,VALID,918.916,VALID,0.0,VALID,97.816,VALID,-0.007,VALID,20.696,VALID,128.0,VALID,0.822,
2018-06-21, 00:42:06,VALID,918.902,VALID,0.0,VALID,97.901,VALID,0.005,VALID,20.7,VALID,132.0,VALID,0.821,
2018-06-21, 00:43:06,VALID,918.898,VALID,0.0,VALID,97.932,VALID,0.019,VALID,20.706,VALID,126.0,VALID,0.895,
2018-06-21, 00:44:06,VALID,918.888,VALID,0.0,VALID,97.93,VALID,-0.006,VALID,20.712,VALID,129.0,VALID,1.164,
2018-06-21, 00:45:06,VALID,918.884,VALID,0.0,VALID,97.878,VALID,-0.002,VALID,20.726,VALID,127.0,VALID,0.857,
2018-06-21, 00:46:06,VALID,918.892,VALID,0.0,VALID,97.826,VALID,-0.007,VALID,20.728,VALID,128.0,VALID,0.863,
2018-06-21, 00:47:06,VALID,918.906,VALID,0.0,VALID,97.826,VALID,0.001,VALID,20.733,VALID,127.0,VALID,1.09,
2018-06-21, 00:48:06,VALID,918.904,VALID,0.0,VALID,97.788,VALID,-0.002,VALID,20.736,VALID,124.0,VALID,1.295,
2018-06-21, 00:49:06,VALID,918.905,VALID,0.0,VALID,97.757,VALID,-0.003,VALID,20.741,VALID,125.0,VALID,1.595,
2018-06-21, 00:50:06,VALID,918.913,VALID,0.0,VALID,97.697,VALID,0.006,VALID,20.744,VALID,121.0,VALID,1.655,
2018-06-21, 00:51:06,VALID,918.909,VALID,0.0,VALID,97.569,VALID,0.024,VALID,20.771,VALID,116.0,VALID,2.011,
2018-06-21, 00:52:06,VALID,918.902,VALID,0.0,VALID,97.216,VALID,0.002,VALID,20.82,VALID,114.0,VALID,1.82,
2018-06-21, 00:53:06,VALID,918.883,VALID,0.0,VALID,96.868,VALID,0.012,VALID,20.887,VALID,124.0,VALID,1.771,
2018-06-21, 00:54:06,VALID,918.876,VALID,0.0,VALID,96.514,VALID,-0.002,VALID,20.955,VALID,127.0,VALID,1.57,
2018-06-21, 00:55:06,VALID,918.859,VALID,0.0,VALID,96.192,VALID,0.014,VALID,21.01,VALID,132.0,VALID,1.363,
2018-06-21, 00:56:06,VALID,918.837,VALID,0.0,VALID,95.876,VALID,0.009,VALID,21.068,VALID,131.0,VALID,0.898,
2018-06-21, 00:57:06,VALID,918.823,VALID,0.0,VALID,95.565,VALID,0.018,VALID,21.105,VALID,126.0,VALID,0.979,
2018-06-21, 00:58:06,VALID,918.806,VALID,0.0,VALID,95.429,VALID,-0.004,VALID,21.115,VALID,140.0,VALID,0.439,
2018-06-21, 00:59:06,VALID,918.809,VALID,0.0,VALID,95.234,VALID,0.016,VALID,21.109,VALID,115.0,VALID,1.166,
2018-06-21, 01:00:06,VALID,918.799,VALID,0.0,VALID,95.102,VALID,0.014,VALID,21.099,VALID,125.0,VALID,0.935,
2018-06-21, 01:01:06,VALID,918.774,VALID,0.0,VALID,95.054,VALID,0.006,VALID,21.108,VALID,132.0,VALID,0.777,
2018-06-21, 01:02:06,VALID,918.774,VALID,0.0,VALID,95.019,VALID,0.008,VALID,21.157,VALID,112.0,VALID,0.238,
2018-06-21, 01:03:06,VALID,918.761,VALID,0.0,VALID,94.584,VALID,0.016,VALID,21.189,VALID,112.0,VALID,0.563,
2018-06-21, 01:04:06,VALID,918.76,VALID,0.0,VALID,94.038,VALID,-0.006,VALID,21.261,VALID,136.0,VALID,0.066,
2018-06-21, 01:05:06,VALID,918.755,VALID,0.0,VALID,94.065,VALID,-0.001,VALID,21.333,VALID,137.0,VALID,0.0,
2018-06-21, 01:06:06,VALID,918.749,VALID,0.0,VALID,93.793,VALID,0.004,VALID,21.401,VALID,135.0,VALID,0.0,
2018-06-21, 01:07:06,VALID,918.745,VALID,0.0,VALID,94.216,VALID,0.004,VALID,21.41,VALID,334.0,VALID,0.0,
2018-06-21, 01:08:06,VALID,918.737,VALID,0.0,VALID,94.335,VALID,0.005,VALID,21.346,VALID,306.0,VALID,0.0,
2018-06-21, 01:09:06,VALID,918.722,VALID,0.0,VALID,94.51,VALID,0.009,VALID,21.252,VALID,261.0,VALID,0.0,
2018-06-21, 01:10:06,VALID,918.701,VALID,0.0,VALID,94.934,VALID,0.009,VALID,21.148,VALID,239.0,VALID,0.0,
2018-06-21, 01:11:06,VALID,918.696,VALID,0.0,VALID,95.218,VALID,-0.001,VALID,21.076,VALID,231.0,VALID,0.0,
2018-06-21, 01:12:06,VALID,918.678,VALID,0.0,VALID,95.308,VALID,0.012,VALID,21.07,VALID,231.0,VALID,0.0,
2018-06-21, 01:13:06,VALID,918.659,VALID,0.0,VALID,95.416,VALID,0.021,VALID,21.067,VALID,231.0,VALID,0.0,
2018-06-21, 01:14:06,VALID,918.622,VALID,0.0,VALID,95.533,VALID,0.012,VALID,21.035,VALID,231.0,VALID,0.0,
2018-06-21, 01:15:06,VALID,918.611,VALID,0.0,VALID,95.733,VALID,0.014,VALID,21.046,VALID,245.0,VALID,0.0,
2018-06-21, 01:16:06,VALID,918.58,VALID,0.0,VALID,95.864,VALID,0.011,VALID,21.066,VALID,310.0,VALID,0.0,
2018-06-21, 01:17:06,VALID,918.551,VALID,0.0,VALID,95.704,VALID,-0.005,VALID,21.036,VALID,326.0,VALID,0.0,
2018-06-21, 01:18:06,VALID,918.524,VALID,0.0,VALID,95.749,VALID,0.005,VALID,20.994,VALID,326.0,VALID,0.0,
2018-06-21, 01:19:06,VALID,918.504,VALID,0.0,VALID,95.863,VALID,0.008,VALID,20.971,VALID,332.0,VALID,0.0,
2018-06-21, 01:20:06,VALID,918.491,VALID,0.0,VALID,95.94,VALID,0.021,VALID,20.939,VALID,336.0,VALID,0.0,
2018-06-21, 01:21:06,VALID,918.482,VALID,0.0,VALID,96.157,VALID,0.013,VALID,20.903,VALID,341.0,VALID,0.0,
2018-06-21, 01:22:06,VALID,918.463,VALID,0.0,VALID,96.352,VALID,0.019,VALID,20.866,VALID,336.0,VALID,0.275,
2018-06-21, 01:23:06,VALID,918.465,VALID,0.0,VALID,96.585,VALID,0.029,VALID,20.831,VALID,342.0,VALID,0.47,
2018-06-21, 01:24:06,VALID,918.45,VALID,0.0,VALID,96.832,VALID,0.013,VALID,20.78,VALID,351.0,VALID,0.465,
2018-06-21, 01:25:06,VALID,918.449,VALID,0.0,VALID,97.096,VALID,0.022,VALID,20.732,VALID,10.0,VALID,0.421,
2018-06-21, 01:26:06,VALID,918.443,VALID,0.0,VALID,97.366,VALID,0.039,VALID,20.697,VALID,5.0,VALID,0.318,
2018-06-21, 01:27:06,VALID,918.414,VALID,0.0,VALID,97.527,VALID,0.023,VALID,20.657,VALID,14.0,VALID,0.214,
2018-06-21, 01:28:06,VALID,918.387,VALID,0.0,VALID,97.724,VALID,0.03,VALID,20.645,VALID,15.0,VALID,0.38,
2018-06-21, 01:29:06,VALID,918.381,VALID,0.0,VALID,97.847,VALID,0.026,VALID,20.626,VALID,17.0,VALID,0.326,
2018-06-21, 01:30:06,VALID,918.363,VALID,0.0,VALID,97.939,VALID,0.021,VALID,20.615,VALID,22.0,VALID,0.405,
2018-06-21, 01:31:06,VALID,918.329,VALID,0.0,VALID,98.083,VALID,0.029,VALID,20.642,VALID,34.0,VALID,0.558,
2018-06-21, 01:32:06,VALID,918.323,VALID,0.0,VALID,98.112,VALID,0.042,VALID,20.689,VALID,54.0,VALID,0.422,
2018-06-21, 01:33:06,VALID,918.308,VALID,0.0,VALID,97.895,VALID,0.029,VALID,20.72,VALID,59.0,VALID,0.633,
2018-06-21, 01:34:06,VALID,918.298,VALID,0.0,VALID,97.532,VALID,0.021,VALID,20.749,VALID,65.0,VALID,0.549,
2018-06-21, 01:35:06,VALID,918.307,VALID,0.0,VALID,97.08,VALID,-0.005,VALID,20.781,VALID,83.0,VALID,0.518,
2018-06-21, 01:36:06,VALID,918.302,VALID,0.0,VALID,96.847,VALID,-0.016,VALID,20.823,VALID,81.0,VALID,0.383,
2018-06-21, 01:37:06,VALID,918.313,VALID,0.0,VALID,96.582,VALID,0.0,VALID,20.858,VALID,72.0,VALID,0.339,
2018-06-21, 01:38:06,VALID,918.32,VALID,0.0,VALID,96.308,VALID,0.016,VALID,20.858,VALID,102.0,VALID,0.24,
2018-06-21, 01:39:06,VALID,918.316,VALID,0.0,VALID,96.192,VALID,0.02,VALID,20.833,VALID,171.0,VALID,0.1,
2018-06-21, 01:40:06,VALID,918.305,VALID,0.0,VALID,96.383,VALID,0.004,VALID,20.825,VALID,151.0,VALID,0.06,
2018-06-21, 01:41:06,VALID,918.291,VALID,0.0,VALID,96.537,VALID,0.004,VALID,20.808,VALID,146.0,VALID,0.176,
2018-06-21, 01:42:06,VALID,918.269,VALID,0.0,VALID,96.642,VALID,0.018,VALID,20.801,VALID,156.0,VALID,0.101,
2018-06-21, 01:43:06,VALID,918.243,VALID,0.0,VALID,96.73,VALID,0.009,VALID,20.804,VALID,152.0,VALID,0.001,
2018-06-21, 01:44:06,VALID,918.218,VALID,0.0,VALID,96.764,VALID,0.016,VALID,20.817,VALID,144.0,VALID,0.168,
2018-06-21, 01:45:06,VALID,918.21,VALID,0.0,VALID,96.666,VALID,0.005,VALID,20.814,VALID,135.0,VALID,0.693,
2018-06-21, 01:46:06,VALID,918.189,VALID,0.0,VALID,96.591,VALID,0.005,VALID,20.792,VALID,131.0,VALID,0.664,
2018-06-21, 01:47:06,VALID,918.178,VALID,0.0,VALID,96.623,VALID,0.005,VALID,20.793,VALID,131.0,VALID,0.742,
2018-06-21, 01:48:06,VALID,918.147,VALID,0.0,VALID,96.646,VALID,0.021,VALID,20.786,VALID,121.0,VALID,0.675,
2018-06-21, 01:49:06,VALID,918.135,VALID,0.0,VALID,96.699,VALID,0.002,VALID,20.774,VALID,120.0,VALID,0.784,
2018-06-21, 01:50:06,VALID,918.125,VALID,0.0,VALID,96.838,VALID,0.015,VALID,20.767,VALID,129.0,VALID,0.517,
2018-06-21, 01:51:06,VALID,918.111,VALID,0.0,VALID,96.854,VALID,0.012,VALID,20.774,VALID,128.0,VALID,0.598,
2018-06-21, 01:52:06,VALID,918.109,VALID,0.0,VALID,96.8,VALID,0.002,VALID,20.794,VALID,129.0,VALID,0.467,
2018-06-21, 01:53:06,VALID,918.095,VALID,0.0,VALID,96.705,VALID,-0.008,VALID,20.827,VALID,141.0,VALID,0.149,
2018-06-21, 01:54:06,VALID,918.093,VALID,0.0,VALID,96.67,VALID,0.01,VALID,20.862,VALID,155.0,VALID,0.294,
2018-06-21, 01:55:06,VALID,918.11,VALID,0.0,VALID,96.548,VALID,-0.016,VALID,20.891,VALID,133.0,VALID,0.435,
2018-06-21, 01:56:06,VALID,918.105,VALID,0.0,VALID,96.336,VALID,-0.0,VALID,20.897,VALID,146.0,VALID,0.377,
2018-06-21, 01:57:06,VALID,918.102,VALID,0.0,VALID,96.381,VALID,-0.013,VALID,20.929,VALID,148.0,VALID,0.227,
2018-06-21, 01:58:06,VALID,918.095,VALID,0.0,VALID,96.258,VALID,0.003,VALID,20.94,VALID,179.0,VALID,0.02,
2018-06-21, 01:59:06,VALID,918.085,VALID,0.0,VALID,96.269,VALID,0.007,VALID,20.981,VALID,178.0,VALID,0.0,
2018-06-21, 02:00:06,VALID,918.086,VALID,0.0,VALID,96.171,VALID,0.008,VALID,21.022,VALID,159.0,VALID,0.01,
2018-06-21, 02:01:06,VALID,918.057,VALID,0.0,VALID,95.884,VALID,-0.012,VALID,21.027,VALID,143.0,VALID,0.011,
2018-06-21, 02:02:06,VALID,918.054,VALID,0.0,VALID,95.733,VALID,0.008,VALID,21.035,VALID,140.0,VALID,0.0,
2018-06-21, 02:03:06,VALID,918.054,VALID,0.0,VALID,95.699,VALID,-0.006,VALID,21.049,VALID,128.0,VALID,0.084,
2018-06-21, 02:04:06,VALID,918.074,VALID,0.0,VALID,95.653,VALID,0.001,VALID,21.064,VALID,126.0,VALID,0.116,
2018-06-21, 02:05:06,VALID,918.087,VALID,0.0,VALID,95.57,VALID,-0.011,VALID,21.077,VALID,92.0,VALID,0.042,
2018-06-21, 02:06:06,VALID,918.087,VALID,0.0,VALID,95.441,VALID,-0.006,VALID,21.084,VALID,144.0,VALID,0.023,
2018-06-21, 02:07:06,VALID,918.098,VALID,0.0,VALID,95.407,VALID,-0.007,VALID,21.102,VALID,145.0,VALID,0.0,
2018-06-21, 02:08:06,VALID,918.114,VALID,0.0,VALID,95.269,VALID,-0.009,VALID,21.123,VALID,146.0,VALID,0.0,
2018-06-21, 02:09:06,VALID,918.124,VALID,0.0,VALID,95.229,VALID,-0.001,VALID,21.129,VALID,147.0,VALID,0.0,
2018-06-21, 02:10:06,VALID,918.142,VALID,0.0,VALID,95.397,VALID,0.003,VALID,21.117,VALID,146.0,VALID,0.0,
2018-06-21, 02:11:06,VALID,918.144,VALID,0.0,VALID,95.796,VALID,-0.02,VALID,21.115,VALID,147.0,VALID,0.0,
2018-06-21, 02:12:06,VALID,918.144,VALID,0.0,VALID,95.725,VALID,-0.001,VALID,21.084,VALID,146.0,VALID,0.0,
2018-06-21, 02:13:06,VALID,918.149,VALID,0.0,VALID,95.76,VALID,-0.0,VALID,21.073,VALID,146.0,VALID,0.0,
2018-06-21, 02:14:06,VALID,918.144,VALID,0.0,VALID,95.807,VALID,-0.013,VALID,21.075,VALID,147.0,VALID,0.0,
2018-06-21, 02:15:06,VALID,918.134,VALID,0.0,VALID,95.829,VALID,-0.007,VALID,21.09,VALID,151.0,VALID,0.0,
2018-06-21, 02:16:06,VALID,918.144,VALID,0.0,VALID,95.565,VALID,-0.012,VALID,21.106,VALID,195.0,VALID,0.0,
2018-06-21, 02:17:06,VALID,918.152,VALID,0.0,VALID,95.399,VALID,-0.015,VALID,21.145,VALID,201.0,VALID,0.0,
2018-06-21, 02:18:06,VALID,918.149,VALID,0.0,VALID,95.385,VALID,0.005,VALID,21.193,VALID,232.0,VALID,0.002,
2018-06-21, 02:19:06,VALID,918.155,VALID,0.0,VALID,95.319,VALID,-0.001,VALID,21.22,VALID,235.0,VALID,0.0,
2018-06-21, 02:20:06,VALID,918.147,VALID,0.0,VALID,95.352,VALID,-0.025,VALID,21.218,VALID,235.0,VALID,0.0,
2018-06-21, 02:21:06,VALID,918.139,VALID,0.0,VALID,95.306,VALID,-0.011,VALID,21.16,VALID,235.0,VALID,0.0,
2018-06-21, 02:22:06,VALID,918.142,VALID,0.0,VALID,95.876,VALID,-0.022,VALID,21.146,VALID,235.0,VALID,0.0,
2018-06-21, 02:23:06,VALID,918.126,VALID,0.0,VALID,95.855,VALID,-0.026,VALID,21.095,VALID,235.0,VALID,0.0,
2018-06-21, 02:24:06,VALID,918.118,VALID,0.0,VALID,95.731,VALID,-0.031,VALID,21.039,VALID,235.0,VALID,0.0,
2018-06-21, 02:25:06,VALID,918.109,VALID,0.0,VALID,95.662,VALID,-0.032,VALID,21.014,VALID,205.0,VALID,0.0,
2018-06-21, 02:26:06,VALID,918.098,VALID,0.0,VALID,95.527,VALID,-0.034,VALID,21.013,VALID,124.0,VALID,0.187,
2018-06-21, 02:27:06,VALID,918.08,VALID,0.0,VALID,95.465,VALID,-0.023,VALID,21.022,VALID,125.0,VALID,0.444,
2018-06-21, 02:28:06,VALID,918.075,VALID,0.0,VALID,95.506,VALID,-0.018,VALID,21.013,VALID,128.0,VALID,0.603,
2018-06-21, 02:29:06,VALID,918.056,VALID,0.0,VALID,95.62,VALID,-0.025,VALID,21.024,VALID,134.0,VALID,0.482,
2018-06-21, 02:30:06,VALID,918.056,VALID,0.0,VALID,95.387,VALID,-0.033,VALID,21.063,VALID,116.0,VALID,0.663,
2018-06-21, 02:31:06,VALID,918.049,VALID,0.0,VALID,95.046,VALID,-0.028,VALID,21.124,VALID,100.0,VALID,0.453,
2018-06-21, 02:32:06,VALID,918.037,VALID,0.0,VALID,94.953,VALID,-0.017,VALID,21.152,VALID,101.0,VALID,0.697,
2018-06-21, 02:33:06,VALID,918.024,VALID,0.0,VALID,94.783,VALID,-0.02,VALID,21.182,VALID,103.0,VALID,0.522,
2018-06-21, 02:34:06,VALID,918.021,VALID,0.0,VALID,94.462,VALID,-0.007,VALID,21.217,VALID,109.0,VALID,0.723,
2018-06-21, 02:35:06,VALID,918.009,VALID,0.0,VALID,93.986,VALID,0.0,VALID,21.291,VALID,114.0,VALID,0.646,
2018-06-21, 02:36:06,VALID,917.994,VALID,0.0,VALID,93.502,VALID,0.021,VALID,21.365,VALID,118.0,VALID,0.454,
2018-06-21, 02:37:06,VALID,917.987,VALID,0.0,VALID,93.253,VALID,-0.004,VALID,21.426,VALID,133.0,VALID,0.318,
2018-06-21, 02:38:06,VALID,917.992,VALID,0.0,VALID,93.092,VALID,0.003,VALID,21.461,VALID,151.0,VALID,0.044,
2018-06-21, 02:39:06,VALID,917.979,VALID,0.0,VALID,92.85,VALID,0.011,VALID,21.486,VALID,137.0,VALID,0.151,
2018-06-21, 02:40:06,VALID,917.992,VALID,0.0,VALID,92.595,VALID,0.002,VALID,21.515,VALID,130.0,VALID,0.558,
2018-06-21, 02:41:06,VALID,917.986,VALID,0.0,VALID,92.336,VALID,0.008,VALID,21.528,VALID,134.0,VALID,0.592,
2018-06-21, 02:42:06,VALID,917.971,VALID,0.0,VALID,92.279,VALID,0.024,VALID,21.55,VALID,139.0,VALID,0.285,
2018-06-21, 02:43:06,VALID,917.962,VALID,0.0,VALID,92.277,VALID,0.01,VALID,21.557,VALID,128.0,VALID,0.451,
2018-06-21, 02:44:06,VALID,917.945,VALID,0.0,VALID,92.186,VALID,0.02,VALID,21.55,VALID,128.0,VALID,0.528,
2018-06-21, 02:45:06,VALID,917.916,VALID,0.0,VALID,92.296,VALID,0.008,VALID,21.54,VALID,118.0,VALID,0.468,
2018-06-21, 02:46:06,VALID,917.909,VALID,0.0,VALID,92.525,VALID,0.003,VALID,21.502,VALID,115.0,VALID,0.545,
2018-06-21, 02:47:06,VALID,917.89,VALID,0.0,VALID,92.151,VALID,0.009,VALID,21.505,VALID,97.0,VALID,0.679,
2018-06-21, 02:48:06,VALID,917.868,VALID,0.0,VALID,92.267,VALID,0.011,VALID,21.534,VALID,95.0,VALID,0.314,
2018-06-21, 02:49:06,VALID,917.867,VALID,0.0,VALID,92.448,VALID,0.008,VALID,21.55,VALID,100.0,VALID,0.166,
2018-06-21, 02:50:06,VALID,917.856,VALID,0.0,VALID,92.2,VALID,0.005,VALID,21.553,VALID,83.0,VALID,0.343,
2018-06-21, 02:51:06,VALID,917.845,VALID,0.0,VALID,92.419,VALID,-0.003,VALID,21.539,VALID,70.0,VALID,0.464,
2018-06-21, 02:52:06,VALID,917.833,VALID,0.0,VALID,92.64,VALID,0.006,VALID,21.514,VALID,66.0,VALID,0.378,
2018-06-21, 02:53:06,VALID,917.815,VALID,0.0,VALID,92.882,VALID,0.003,VALID,21.487,VALID,43.0,VALID,0.364,
2018-06-21, 02:54:06,VALID,917.817,VALID,0.0,VALID,93.454,VALID,0.011,VALID,21.424,VALID,41.0,VALID,0.113,
2018-06-21, 02:55:06,VALID,917.8,VALID,0.0,VALID,93.678,VALID,0.009,VALID,21.338,VALID,49.0,VALID,0.459,
2018-06-21, 02:56:06,VALID,917.791,VALID,0.0,VALID,93.903,VALID,0.009,VALID,21.289,VALID,49.0,VALID,0.058,
2018-06-21, 02:57:06,VALID,917.769,VALID,0.0,VALID,94.059,VALID,0.005,VALID,21.235,VALID,71.0,VALID,0.195,
2018-06-21, 02:58:06,VALID,917.748,VALID,0.0,VALID,94.085,VALID,0.012,VALID,21.198,VALID,83.0,VALID,0.305,
2018-06-21, 02:59:06,VALID,917.729,VALID,0.0,VALID,93.963,VALID,0.022,VALID,21.178,VALID,86.0,VALID,0.515,
2018-06-21, 03:00:06,VALID,917.735,VALID,0.0,VALID,93.704,VALID,0.019,VALID,21.221,VALID,102.0,VALID,0.723,
2018-06-21, 03:01:06,VALID,917.731,VALID,0.0,VALID,93.535,VALID,-0.003,VALID,21.271,VALID,110.0,VALID,0.765,
2018-06-21, 03:02:06,VALID,917.712,VALID,0.0,VALID,93.323,VALID,0.012,VALID,21.317,VALID,112.0,VALID,0.614,
2018-06-21, 03:03:07,VALID,917.702,VALID,0.0,VALID,92.971,VALID,0.02,VALID,21.364,VALID,118.0,VALID,0.535,
2018-06-21, 03:04:07,VALID,917.671,VALID,0.0,VALID,92.834,VALID,0.007,VALID,21.404,VALID,117.0,VALID,0.675,
2018-06-21, 03:05:07,VALID,917.661,VALID,0.0,VALID,92.732,VALID,0.009,VALID,21.429,VALID,125.0,VALID,0.401,
2018-06-21, 03:06:07,VALID,917.647,VALID,0.0,VALID,92.914,VALID,0.014,VALID,21.435,VALID,140.0,VALID,0.254,
2018-06-21, 03:07:07,VALID,917.629,VALID,0.0,VALID,93.062,VALID,0.026,VALID,21.439,VALID,161.0,VALID,0.017,
2018-06-21, 03:08:07,VALID,917.611,VALID,0.0,VALID,92.993,VALID,0.022,VALID,21.452,VALID,144.0,VALID,0.237,
2018-06-21, 03:09:07,VALID,917.605,VALID,0.0,VALID,92.752,VALID,0.027,VALID,21.456,VALID,159.0,VALID,0.235,
2018-06-21, 03:10:07,VALID,917.605,VALID,0.0,VALID,92.303,VALID,0.021,VALID,21.47,VALID,162.0,VALID,0.055,
2018-06-21, 03:11:07,VALID,917.612,VALID,0.0,VALID,92.19,VALID,0.025,VALID,21.504,VALID,151.0,VALID,0.063,
2018-06-21, 03:12:07,VALID,917.617,VALID,0.0,VALID,92.227,VALID,0.01,VALID,21.518,VALID,129.0,VALID,0.147,
2018-06-21, 03:13:07,VALID,917.632,VALID,0.0,VALID,92.291,VALID,0.026,VALID,21.518,VALID,145.0,VALID,0.016,
2018-06-21, 03:14:07,VALID,917.647,VALID,0.0,VALID,92.227,VALID,0.023,VALID,21.507,VALID,169.0,VALID,0.0,
2018-06-21, 03:15:07,VALID,917.675,VALID,0.0,VALID,92.245,VALID,0.025,VALID,21.492,VALID,151.0,VALID,0.0,
2018-06-21, 03:16:07,VALID,917.678,VALID,0.0,VALID,92.498,VALID,0.025,VALID,21.491,VALID,127.0,VALID,0.0,
2018-06-21, 03:17:07,VALID,917.683,VALID,0.0,VALID,92.792,VALID,0.008,VALID,21.478,VALID,142.0,VALID,0.006,
2018-06-21, 03:18:07,VALID,917.664,VALID,0.0,VALID,92.699,VALID,0.022,VALID,21.467,VALID,147.0,VALID,0.09,
2018-06-21, 03:19:07,VALID,917.665,VALID,0.0,VALID,92.586,VALID,0.01,VALID,21.46,VALID,120.0,VALID,0.424,
2018-06-21, 03:20:07,VALID,917.651,VALID,0.0,VALID,92.745,VALID,-0.018,VALID,21.433,VALID,133.0,VALID,0.704,
2018-06-21, 03:21:07,VALID,917.642,VALID,0.0,VALID,92.44,VALID,-0.01,VALID,21.424,VALID,130.0,VALID,0.893,
2018-06-21, 03:22:07,VALID,917.635,VALID,0.0,VALID,91.956,VALID,-0.01,VALID,21.469,VALID,118.0,VALID,0.914,
2018-06-21, 03:23:07,VALID,917.621,VALID,0.0,VALID,91.665,VALID,-0.027,VALID,21.504,VALID,127.0,VALID,0.829,
2018-06-21, 03:24:07,VALID,917.614,VALID,0.0,VALID,91.322,VALID,-0.001,VALID,21.541,VALID,111.0,VALID,1.03,
2018-06-21, 03:25:07,VALID,917.622,VALID,0.0,VALID,91.203,VALID,-0.013,VALID,21.566,VALID,103.0,VALID,0.785,
2018-06-21, 03:26:07,VALID,917.629,VALID,0.0,VALID,91.358,VALID,-0.024,VALID,21.568,VALID,105.0,VALID,0.679,
2018-06-21, 03:27:07,VALID,917.635,VALID,0.0,VALID,91.545,VALID,-0.005,VALID,21.557,VALID,102.0,VALID,1.004,
2018-06-21, 03:28:07,VALID,917.639,VALID,0.0,VALID,91.551,VALID,-0.002,VALID,21.538,VALID,107.0,VALID,0.945,
2018-06-21, 03:29:07,VALID,917.632,VALID,0.0,VALID,91.339,VALID,-0.009,VALID,21.533,VALID,104.0,VALID,1.114,
2018-06-21, 03:30:07,VALID,917.639,VALID,0.0,VALID,91.297,VALID,-0.004,VALID,21.54,VALID,104.0,VALID,1.071,
2018-06-21, 03:31:07,VALID,917.625,VALID,0.0,VALID,91.421,VALID,-0.023,VALID,21.539,VALID,98.0,VALID,0.98,
2018-06-21, 03:32:07,VALID,917.615,VALID,0.0,VALID,91.542,VALID,-0.03,VALID,21.522,VALID,96.0,VALID,0.957,
2018-06-21, 03:33:07,VALID,917.598,VALID,0.0,VALID,91.685,VALID,-0.02,VALID,21.505,VALID,105.0,VALID,0.789,
2018-06-21, 03:34:07,VALID,917.598,VALID,0.0,VALID,91.908,VALID,-0.006,VALID,21.478,VALID,93.0,VALID,0.848,
2018-06-21, 03:35:07,VALID,917.599,VALID,0.0,VALID,92.261,VALID,0.021,VALID,21.442,VALID,77.0,VALID,1.193,
2018-06-21, 03:36:07,VALID,917.597,VALID,0.0,VALID,91.615,VALID,0.003,VALID,21.416,VALID,80.0,VALID,1.622,
2018-06-21, 03:37:07,VALID,917.611,VALID,0.0,VALID,90.401,VALID,0.01,VALID,21.515,VALID,99.0,VALID,1.811,
2018-06-21, 03:38:07,VALID,917.603,VALID,0.0,VALID,90.046,VALID,0.005,VALID,21.635,VALID,92.0,VALID,1.507,
2018-06-21, 03:39:07,VALID,917.617,VALID,0.0,VALID,89.842,VALID,-0.004,VALID,21.674,VALID,101.0,VALID,1.555,